Content
SEND FEEDBACK

Daily
Averages
Monthly
Summary
United States of America

EARTH CITY, MISSOURI


Home > North America > United States > Missouri
Elevation: 476 feet     Latitude: 38 46N     Longitude: 090 30W

WEATHER
 
SELECT A DAY
Number of Records: 208,327;   Date Range: 1/1/95 - 12/21/14
 
SHARE

PRINT THIS DATA

[ ← Previous Day ]
WEATHER ALMANAC - FEBRUARY 18, 2013
[ Next Day → ]
[ °C ]   °F
Weather ElementAverageHighLow
Temperature47.9 °F57.9 °F (10:51 am)34 °F (11:51 pm)
Dewpoint39.3 °F46.9 °F (5:51 pm)23 °F (11:51 pm)
Humidity72.7 %87 % (6:41 pm)55 % (9:51 am)
Barometer29.71 in29.91 in (11:51 pm)29.56 in (4:58 pm)
Wind Speed19 mph29.9 mph (9:51 pm)
Wind Gust40.3 mph (9:51 pm)
Weather ElementAverage
Visibility8.3 mi
Wind DirectionSSW (209.7 °)

Weather ElementTotal
Precipitation0.28 in
Heating Degree Days19.1 (Base 65)
Averaged from 34 records on February 18, 2013
WEATHER CONDITIONS BREAKOUT
WIND DIRECTION BREAKOUT
WEATHER BY HOUR - FEBRUARY 18, 2013
[ °C ]   °F
Local TimeTemperatureDewpointHumidityBarometerVisibilityWind DirectionWind SpeedGust SpeedPrecipitationEventsConditions
1:51 AM39.2 °F28.4 °F65 %29.88 in10.0 miSE (140°)9.2 mphScattered Clouds
2:51 AM39.9 °F30.0 °F68 %29.87 in10.0 miSE (130°)6.9 mphMostly Cloudy
3:51 AM42.1 °F32.0 °F67 %29.85 in10.0 miSouth (170°)11.5 mphMostly Cloudy
4:51 AM44.1 °F33.1 °F65 %29.83 in10.0 miSouth (170°)13.8 mphOvercast
5:51 AM45.0 °F34.0 °F65 %29.82 in10.0 miSouth (170°)16.1 mphMostly Cloudy
6:51 AM45.0 °F35.1 °F68 %29.81 in10.0 miSouth (170°)13.8 mphMostly Cloudy
7:51 AM46.9 °F37.0 °F68 %29.80 in10.0 miSouth (180°)12.7 mphOvercast
8:51 AM53.1 °F39.0 °F59 %29.78 in10.0 miSouth (180°)12.7 mph20.7 mphMostly Cloudy
9:51 AM57.0 °F41.0 °F55 %29.78 in10.0 miSouth (190°)20.7 mph35.7 mphMostly Cloudy
10:51 AM57.9 °F43.0 °F58 %29.76 in10.0 miSSW (200°)26.5 mph34.5 mphMostly Cloudy
11:51 AM57.0 °F43.0 °F59 %29.74 in10.0 miSouth (190°)26.5 mph36.8 mphOvercast
12:13 PM55.4 °F42.8 °F63 %29.73 in10.0 miSSW (200°)21.9 mph31.1 mphOvercast
12:51 PM55.9 °F44.1 °F64 %29.71 in10.0 miSouth (190°)23.0 mph38.0 mphOvercast
1:51 PM55.9 °F44.1 °F64 %29.67 in10.0 miSouth (180°)17.3 mph29.9 mphOvercast
2:51 PM55.0 °F44.1 °F67 %29.64 in10.0 miSouth (180°)20.7 mph33.4 mphOvercast
3:51 PM52.0 °F45.0 °F77 %29.60 in5.0 miSouth (170°)15.0 mph26.5 mph0.00 inRainLight Rain
3:53 PM51.8 °F46.4 °F82 %29.59 in3.0 miSouth (180°)16.1 mph26.5 mph0.01 inRainLight Rain
4:23 PM51.8 °F46.4 °F82 %29.59 in4.0 miSSE (160°)21.9 mph28.8 mph0.05 inRainLight Rain
4:43 PM51.8 °F46.4 °F82 %29.57 in7.0 miSouth (170°)17.3 mph24.2 mphRainLight Rain
4:51 PM51.1 °F46.0 °F83 %29.57 in7.0 miSSE (160°)18.4 mph25.3 mph0.06 inRainLight Rain
4:58 PM51.8 °F46.4 °F82 %29.56 in7.0 miSouth (170°)17.3 mph29.9 mph0.01 inRainLight Rain
5:27 PM51.8 °F46.4 °F82 %29.57 in4.0 miSouth (180°)15.0 mph0.01 inRainLight Rain
5:51 PM51.1 °F46.9 °F86 %29.57 in4.0 miSouth (170°)13.8 mph23.0 mph0.05 inRainLight Rain
6:02 PM51.8 °F46.4 °F82 %29.57 in6.0 miSSW (200°)12.7 mph0.00 inRainLight Rain
6:29 PM51.8 °F46.4 °F82 %29.60 in3.0 miWest (260°)19.6 mph26.5 mphRainRain
6:41 PM48.2 °F44.6 °F87 %29.61 in4.0 miNW (310°)25.3 mph38.0 mph0.04 inRainLight Rain
6:51 PM46.0 °F42.1 °F86 %29.64 in8.0 miWNW (300°)24.2 mph32.2 mph0.05 inOvercast
6:58 PM44.6 °F41.0 °F87 %29.64 in10.0 miWNW (290°)24.2 mph36.8 mphOvercast
7:51 PM41.0 °F35.1 °F79 %29.73 in10.0 miNW (320°)26.5 mph35.7 mphOvercast
8:51 PM39.9 °F34.0 °F79 %29.77 in10.0 miWNW (290°)27.6 mph38.0 mphOvercast
9:33 PM37.4 °F30.2 °F75 %29.81 in10.0 miWNW (290°)23.0 mph33.4 mphOvercast
9:51 PM36.0 °F28.0 °F73 %29.83 in10.0 miWNW (290°)29.9 mph40.3 mphOvercast
10:51 PM35.1 °F25.0 °F67 %29.88 in10.0 miWNW (300°)18.4 mph28.8 mphOvercast
11:51 PM34.0 °F23.0 °F64 %29.91 in10.0 miWest (280°)25.3 mph32.2 mphOvercast
Hourly data recorded from KSTL, located miles away from Earth City, Missouri







STORIES FROM OUR PARTNERS